This demonstration page uses our WeatherBlox Daily Observations layout. Learn more.

Left ArrowRight Arrow

39.92423, -83.80882

Hourly Observations for July 13, 2021

Temp ( °F °C ) Dew Point ( °F °C ) Humidity (%) Winds ( mph kmh ) Pressure ( in mb ) Visibility ( mi km ) Precip ( " mm )
12:56 am 00:56 Partly Cloudy with Light Rain 72 22 N/A N/A SSW 7 11 30.08 1019 10 16 0.04 1.02
1:56 am 01:56 Mostly Cloudy with Light Rain 72 22 N/A N/A S 5 7 30.07 1018 10 16 0.01 0.25
2:56 am 02:56 Partly Cloudy 70 21 N/A N/A S 3 6 30.07 1018 10 16 0.00 0.00
3:56 am 03:56 Clear 70 21 N/A N/A S 5 7 30.06 1018 10 16 N/A
4:45 am 04:45 Mostly Cloudy 70 21 N/A N/A SSW 5 7 30.05 1018 10 16 N/A
4:56 am 04:56 Cloudy 70 21 N/A N/A SSW 6 9 30.06 1018 10 16 N/A
5:43 am 05:43 Cloudy 72 22 N/A N/A S 6 9 30.04 1017 10 16 N/A
5:56 am 05:56 Cloudy 72 22 N/A N/A S 6 9 30.06 1018 10 16 N/A
6:15 am 06:15 Cloudy 72 22 N/A N/A S 3 6 30.06 1018 10 16 N/A
6:51 am 06:51 Cloudy 70 21 N/A N/A VRB 5 7 30.08 1019 10 16 N/A
6:56 am 06:56 Cloudy with Light Rain 70 21 N/A N/A SSW 6 9 30.09 1019 10 16 0.00 0.00
7:09 am 07:09 Mostly Cloudy with Light Rain 70 21 N/A N/A SSW 5 7 30.08 1019 10 16 0.00 0.00
7:56 am 07:56 Cloudy with Light Rain 70 21 N/A N/A SSW 5 7 30.11 1020 9 14 0.02 0.51
8:20 am 08:20 Cloudy with Light Rain 70 21 N/A N/A S 3 6 30.10 1019 8 13 0.01 0.25
8:35 am 08:35 Cloudy with Light Rain 70 21 N/A N/A SSW 6 9 30.11 1020 9 14 0.02 0.51
8:56 am 08:56 Cloudy with Light Rain 72 22 N/A N/A S 6 9 30.12 1020 10 16 0.03 0.76
9:08 am 09:08 Cloudy with Light Rain 72 22 N/A N/A S 5 7 30.10 1019 10 16 0.00 0.00
9:29 am 09:29 Cloudy with Light Rain 72 22 N/A N/A SSW 6 9 30.10 1019 7 11 0.05 1.27
9:56 am 09:56 Cloudy 72 22 N/A N/A S 5 7 30.13 1020 10 16 0.05 1.27
10:56 am 10:56 Cloudy with Light Rain 72 22 N/A N/A SSW 7 11 30.12 1020 10 16 0.00 0.00
11:47 am 11:47 Cloudy 73 23 N/A N/A SSW 9 15 30.09 1019 10 16 0.09 2.29
11:50 am 11:50 Cloudy 73 23 N/A N/A SSW 6 9 30.09 1019 10 16 0.09 2.29
11:56 am 11:56 Mostly Cloudy 75 23.9 75 23.9 100 100 SSW 7 11 30.11 1020 10 16 0.09 2.29
12:01 pm 12:01 Mostly Cloudy 75 24 75 24 100 100 SW 10 17 30.09 1019 10 16 N/A
12:18 pm 12:18 Mostly Cloudy 75 24 73 23 94 94 SW 13 20 30.08 1019 10 16 N/A
12:56 pm 12:56 Mostly Cloudy 78 25.6 74 23.3 87 87 SSW 9 15 30.10 1019 10 16 N/A
1:08 pm 13:08 Partly Cloudy 77 25 73 23 89 89 S 9 15 30.07 1018 10 16 N/A
1:16 pm 13:16 Mostly Cloudy 75 24 73 23 94 94 SW 14 22 30.09 1019 10 16 N/A
1:22 pm 13:22 Mostly Cloudy with Nearby Thunderstorms 72 22 72 22 100 100 W 17 28 30.10 1019 3 5 0.13 3.30
1:29 pm 13:29 Cloudy with Thunderstorms 70 21 70 21 100 100 SW 9 15 30.11 1020 2 3 0.21 5.33
1:34 pm 13:34 Cloudy with Thunderstorms 70 21 70 21 100 100 SW 8 13 30.10 1019 6 10 0.23 5.84
1:49 pm 13:49 Cloudy with Light Rain 72 22 N/A N/A SW 8 13 30.08 1019 10 16 0.24 6.10
1:56 pm 13:56 Mostly Cloudy 73 23 N/A N/A SSW 7 11 30.10 1019 10 16 0.24 6.10
2:56 pm 14:56 Cloudy with Light Rain 74 23.3 74 23.3 100 100 SSW 8 13 30.09 1019 7 11 0.09 2.29
3:56 pm 15:56 Cloudy with Rain 75 23.9 75 23.9 100 100 S 8 13 30.08 1019 8 13 0.05 1.27
4:31 pm 16:31 Mostly Cloudy 79 26 73 23 84 84 SSW 9 15 30.03 1017 10 16 0.05 1.27
4:56 pm 16:56 Mostly Cloudy with Thunderstorms 77 25 74 23.3 90 90 S 9 15 30.08 1019 9 14 0.05 1.27
5:08 pm 17:08 Cloudy with Thunderstorms 75 24 75 24 100 100 SSW 7 11 30.06 1018 9 14 N/A
5:25 pm 17:25 Cloudy with Nearby Thunderstorms 72 22 72 22 100 100 W 14 22 30.06 1018 10 16 0.05 1.27
5:38 pm 17:38 Cloudy with Nearby Thunderstorms 72 22 N/A N/A SW 12 19 30.08 1019 8 13 0.15 3.81
5:54 pm 17:54 Mostly Cloudy 73 23 N/A N/A SW 9 15 30.07 1018 10 16 0.22 5.59
5:56 pm 17:56 Mostly Cloudy 73 23 N/A N/A SSW 7 11 30.09 1019 10 16 0.22 5.59
6:06 pm 18:06 Partly Cloudy 73 23 N/A N/A SW 14 22 30.07 1018 10 16 N/A
6:56 pm 18:56 Sunny 74 23.3 74 23.3 100 100 SW 9 15 30.10 1019 10 16 N/A
7:34 pm 19:34 Sunny with Nearby Thunderstorms 72 22 72 22 100 100 VRB 3 6 30.08 1019 10 16 N/A
7:49 pm 19:49 Sunny 72 22 N/A N/A SSW 9 15 30.09 1019 10 16 N/A
7:56 pm 19:56 Partly Cloudy with Nearby Thunderstorms 72 22 N/A N/A SW 12 19 30.12 1020 10 16 0.00 0.00
8:26 pm 20:26 Mostly Cloudy with Light Rain 70 21 N/A N/A SSW 7 11 30.10 1019 10 16 0.21 5.33
8:47 pm 20:47 Mostly Cloudy with Nearby Thunderstorms 70 21 N/A N/A SSW 8 13 30.10 1019 10 16 0.21 5.33
8:56 pm 20:56 Partly Cloudy with Nearby Thunderstorms 70 21 N/A N/A SW 9 15 30.11 1020 10 16 0.21 5.33
9:07 pm 21:07 Partly Cloudy 70 21 N/A N/A SSW 8 13 30.09 1019 10 16 N/A
9:56 pm 21:56 Clear 68 20 N/A N/A SW 6 9 30.12 1020 10 16 N/A
10:56 pm 22:56 Clear 68 20 N/A N/A SW 6 9 30.15 1021 10 16 N/A
11:56 pm 23:56 Mostly Clear 66 19 N/A N/A SW 6 9 30.14 1021 10 16 N/A

Powered by AerisWeather